Home > Weather > Medellin > Past weeks

Flag for Colombia Weather for the Past 2 Weeks in Medellin, Colombia

Now
57 °F

Passing clouds.


Feels Like: 57 °F
Forecast: 67 / 84 °F
Wind: No wind

Location: Rionegro / J. M. Cordova

Current Time: Feb 11, 2016 at 10:48:18 PM

Latest Report: Feb 11, 2016 at 10:00 PM


Visibility: 4 mi

Pressure: 30.32 "Hg (25.43 "Hg at 1479m altitude)

Humidity: 88%

Dew point: 54 °F

Location of MedellinLocation

Historic Weather in Medellin — Graph

°F

Medellin Temperature Yesterday

Maximum temperature yesterday: 75 °F (at 4:00 PM)
Minimum temperature yesterday: 57 °F (at 1:00 AM)
Average temperature yesterday: 65 °F

High & Low Weather Summary for the Past Weeks

 TemperatureHumidityPressure
High75 °F (Jan 28, 2:00 PM)100% (Jan 30, 11:00 PM)30.38 "Hg (Jan 30, 11:00 PM)
Low52 °F (Feb 4, 7:00 AM)38% (Feb 6, 2:00 PM)30.16 "Hg (Feb 2, 4:00 PM)
Average64 °F78%30.28 "Hg
* Reported Jan 27 9:00 PM — Feb 11 9:00 PM, Medellin, Weather by CustomWeather, © 2016

Note: Actual official high and low records may vary slightly from our data, if they occured in-between our weather recording intervals... More about our weather records

Advertising

Medellin Weather History for the Previous 24 Hours

 ConditionsComfort  
Time TempWeatherWind HumidityBarometerVisibility
9:00 PM
Thu, Feb 11
57 °FPassing clouds.No wind88%30.31 "HgN/A
8:00 PM59 °FPassing clouds.No wind82%30.27 "HgN/A
7:00 PM64 °FPassing clouds.5 mph68%30.26 "HgN/A
6:00 PM66 °FScattered clouds.6 mph60%30.25 "HgN/A
4:00 PM70 °FPartly sunny.8 mph60%30.22 "HgN/A
3:00 PM70 °FPartly sunny.9 mph60%30.23 "HgN/A
2:00 PM70 °FPartly sunny.8 mph57%30.24 "HgN/A
1:00 PM70 °FPartly sunny.2 mph64%30.26 "HgN/A
12:00 PM66 °FOvercast.6 mph73%30.30 "HgN/A
11:00 AM64 °FPartly sunny.2 mph78%30.34 "HgN/A
10:00 AM61 °FDrizzle. Overcast.2 mph88%30.37 "HgN/A
9:00 AM61 °FBroken clouds.5 mph88%30.36 "HgN/A
8:00 AM61 °FDrizzle. Partly sunny.2 mph88%30.36 "Hg3 mi
7:00 AM59 °FBroken clouds.5 mph94%30.32 "Hg5 mi
6:00 AM61 °FPassing clouds.No wind88%30.29 "HgN/A
5:00 AM59 °FPassing clouds.No wind100%30.28 "HgN/A
4:00 AM59 °FPassing clouds.No wind94%30.27 "HgN/A
3:00 AM59 °FPassing clouds.No wind94%30.29 "Hg4 mi
2:00 AM61 °FPartly cloudy.No wind94%30.30 "Hg5 mi
1:00 AM63 °FPartly cloudy.No wind94%30.31 "Hg5 mi
12:00 AM63 °FPartly cloudy.No wind88%30.32 "Hg5 mi
11:00 PM
Wed, Feb 10
63 °FPassing clouds.No wind94%30.33 "HgN/A
10:00 PM63 °FPassing clouds.No wind94%30.33 "HgN/A
Weather by CustomWeather, © 2016

See weather overviewHow to use our weather pages